Retour au catalogue

COSMOS 374 DEB

ActifLEO
NORAD 4699·DEBRIS·🇷🇺 Russia

Lancé Oct 23, 1970 depuis Baikonur Cosmodrome

Loading…

Prochains Passages (prochaines 24 heures)

TLE

FraisSource: Space-Track

Époque: Sep 14, 2026, 05:59 UTC

1 04699U 70089R   26257.24968569  .00004408  00000-0  45737-3 0  9998
2 04699  62.9145 142.0593 0175624 210.7491 148.3219 14.80679758724972

Suivez COSMOS 374 DEB en temps réel avec AllMySat

Download on the App Store